This is the latest recevied weather packets stored in our database for station/object KF0PEC-15. If no packets are shown the sender has not sent any weather packets the latest 10 day(s).
| Time | Temp. | Humidity | Pressure | Rain* | Wind** | Luminosity | Snow |
|---|---|---|---|---|---|---|---|
| 1777963875 | 8.33° C | 83% | 1014.1 hPa | 0 mm | - | 0 W/m² | - |
| 1777963330 | 8.33° C | 83% | 1014.1 hPa | 0 mm | - | 0 W/m² | - |
| 1777962745 | 8.33° C | 83% | 1014.1 hPa | 0 mm | - | 0 W/m² | - |
| 1777962234 | 8.89° C | 82% | 1013.7 hPa | 0.51 mm | - | 0 W/m² | - |
| 1777961664 | 8.89° C | 81% | 1013.7 hPa | 0.25 mm | - | 0 W/m² | - |
| 1777961134 | 9.44° C | 79% | 1013.4 hPa | 0.51 mm | - | 0 W/m² | - |
| 1777960539 | 9.44° C | 74% | 1013.6 hPa | 0 mm | - | 0 W/m² | - |
| 1777959940 | 10° C | 70% | 1013.3 hPa | 0 mm | - | 0 W/m² | - |
| 1777959349 | 10° C | 69% | 1013.2 hPa | 0 mm | - | 0 W/m² | - |
| 1777958789 | 10° C | 68% | 1013.1 hPa | 0 mm | - | 0 W/m² | - |
| 1777958249 | 10° C | 68% | 1012.9 hPa | 0 mm | - | 0 W/m² | - |
| 1777957689 | 10° C | 67% | 1012.9 hPa | 0 mm | - | 0 W/m² | - |
| 1777957100 | 10° C | 67% | 1013 hPa | 0 mm | - | 0 W/m² | - |
| 1777956545 | 10° C | 68% | 1012.9 hPa | 0 mm | - | 0 W/m² | - |
| 1777956029 | 10° C | 68% | 1013 hPa | 0 mm | - | 0 W/m² | - |
| 1777955459 | 10° C | 67% | 1012.8 hPa | 0 mm | - | 0 W/m² | - |
| 1777954980 | 10° C | 67% | 1012.6 hPa | 0 mm | - | 0 W/m² | - |
| 1777954445 | 10° C | 67% | 1012.2 hPa | 0 mm | - | 0 W/m² | - |
| 1777953945 | 10° C | 66% | 1012.3 hPa | 0 mm | - | 0 W/m² | - |
| 1777953369 | 10° C | 66% | 1012.2 hPa | 0 mm | - | 0 W/m² | - |
| 1777952769 | 10° C | 66% | 1012 hPa | 0 mm | - | 0 W/m² | - |
| 1777952255 | 10.56° C | 65% | 1011.8 hPa | 0 mm | - | 0 W/m² | - |
| 1777951749 | 10.56° C | 65% | 1011.7 hPa | 0 mm | - | 0 W/m² | - |
| 1777951149 | 10° C | 67% | 1011.9 hPa | 0 mm | - | 0 W/m² | - |
| 1777950589 | 10° C | 67% | 1011.6 hPa | 0 mm | - | 0 W/m² | - |
* Rain latest hour (hover to see other rain measurements)
** Current wind speed in m/s (hover to see current wind gust speed)